EHI
0 0 0 0 0 1 1 1 0 0 0 1 2 2 2 2 2 1 0 0 0 0 0 0 0 0 0 0 0 0 0 0 0 0 0 0 0 0 0 0 0 0 0
0 0 0 0 0 0 0 0 0 0 0 1 1 1 1 1 1 0 0 0 0 0 0 0 0 0 0 0 0 0 0 0 0 0 0 0 0 0 0 0 0 0 0
0 0 0 0 0 0 0 0 0 0 0 0 0 0 0 0 0 0 0 0 0 0 0 0 0 0 0 0 0 0 0 0 0 0 0 0 0 0 0 0 0 0 0
2 2 1 0 0 0 0 0 0 0 0 0 0 0 0 0 0 0 0 0 0 0 0 0 0 0 0 0 0 0 0 0 0 1 0 0 0 0 0 0 0 0 0
5 4 1 0 0 0 0 0 0 0 0 0 0 0 0 0 0 0 0 0 0 0 0 0 0 0 0 0 0 0 0 0 0 0 0 0 0 0 0 0 0 0 0
7 4 1 0 0 0 0 0 0 0 0 0 0 0 0 0 0 0 0 0 0 0 0 0 0 0 0 0 0 1 3 3 3 1 1 1 0 0 0 0 0 0 0
8 3 0 0 1 0 0 0 0 0 0 0 0 0 0 0 0 0 0 0 0 0 0 0 0 0 0 0 0 2 6 9 6 3 3 3 1 0 0 0 0 0 0
7 3 0 0 0 0 0 0 0 0 0 0 0 0 0 0 0 0 0 0 0 0 0 0 0 0 0 0 0 2 9 13 9 3 4 3 1 0 0 0 0 0 0
5 3 2 2 1 0 0 0 0 0 0 0 0 0 0 0 0 0 0 0 0 0 0 0 0 0 0 0 1 4 11 14 9 3 2 1 0 0 0 0 0 0 0
4 5 5 4 3 2 1 0 0 0 0 0 1 1 1 0 0 0 0 0 0 0 0 0 0 0 0 1 4 9 12 11 6 2 1 1 1 1 0 0 0 0 0
5 6 6 5 4 3 2 1 0 1 1 2 3 4 4 3 2 1 1 0 0 0 0 1 2 2 2 4 10 14 12 6 3 1 2 3 3 2 1 1 0 0 0
6 7 6 5 3 2 2 1 1 4 5 5 4 6 6 5 3 3 3 2 2 2 2 4 5 4 3 4 10 13 9 4 1 2 4 6 6 4 3 2 1 1 0
6 6 6 4 3 2 1 2 3 7 9 6 4 4 4 4 3 5 5 5 5 5 5 7 7 5 2 2 5 6 4 1 1 2 5 8 9 6 4 2 2 1 1
5 6 6 5 3 3 3 3 4 8 9 6 4 3 3 3 4 6 7 7 6 5 5 6 5 4 2 2 3 3 2 1 1 3 7 12 13 9 5 3 2 1 1
6 7 7 7 6 5 5 5 6 9 10 8 6 5 4 5 6 7 8 9 6 4 4 4 5 5 5 5 5 4 3 3 2 3 9 15 16 13 9 6 5 3 2
7 9 11 11 9 7 5 5 6 8 10 9 10 9 7 7 7 7 9 9 7 4 4 6 6 5 5 6 6 5 5 5 3 4 9 14 15 14 12 10 8 6 5
12 15 16 14 12 10 5 2 3 6 7 9 13 14 10 7 6 7 7 8 7 6 6 7 6 4 5 6 6 4 5 6 5 4 8 11 13 13 14 13 11 9 8
23 24 19 15 15 14 8 3 3 5 6 9 13 15 10 6 6 7 7 7 6 7 6 5 4 4 6 7 5 4 4 6 5 4 5 10 14 14 14 15 15 14 12
37 34 24 18 18 18 13 7 6 6 7 10 15 14 9 5 6 8 9 9 8 7 5 3 3 6 7 7 5 3 4 7 7 4 3 8 16 19 16 16 17 17 16
50 45 35 28 25 22 16 11 8 8 9 12 18 19 13 8 8 10 12 13 12 8 5 4 4 7 8 6 4 2 5 10 10 6 4 6 12 17 18 19 17 14 13
61 57 49 42 37 29 22 16 13 11 12 15 23 27 23 17 15 16 17 18 16 11 8 6 8 9 6 4 3 2 5 10 10 7 6 6 6 9 14 20 18 13 10
72 67 60 53 46 37 30 24 18 15 15 20 29 36 33 28 25 23 22 21 18 14 11 10 12 11 5 3 4 3 4 5 5 4 5 5 4 5 10 15 18 17 15
77 72 64 58 53 44 36 29 23 21 21 27 37 40 37 33 31 28 26 23 20 15 11 12 13 12 7 5 4 3 2 2 1 1 2 3 5 6 7 9 13 17 19
74 70 66 64 60 53 43 34 30 29 28 32 39 41 38 35 33 32 31 30 25 18 13 12 12 13 10 7 4 3 2 2 1 0 1 2 4 6 6 6 9 12 14
69 68 69 70 68 61 52 43 37 33 31 34 41 45 42 39 35 35 38 37 31 24 18 14 13 13 12 8 6 5 4 4 2 1 1 1 3 6 6 5 6 7 8
67 67 69 72 72 66 57 47 40 35 32 37 45 48 44 41 38 36 40 41 34 26 22 17 13 13 12 9 7 5 4 4 3 1 1 2 4 7 7 5 4 5 6
Wind_Speed
12 12 13 14 15 16 16 15 15 16 16 16 17 17 17 17 18 18 17 17 17 18 17 17 17 17 17 16 16 16 16 16 16 17 17 16 15 13 12 13 15 13 16
15 14 14 14 15 15 15 15 15 15 16 16 16 16 16 16 17 17 17 17 17 17 17 17 16 16 16 15 15 14 14 14 15 16 17 15 15 13 13 15 16 11 15
15 15 15 14 14 14 14 14 15 15 15 16 16 15 15 16 16 16 16 17 17 17 17 16 16 16 15 14 13 12 11 11 12 13 14 11 12 14 16 17 17 15 14
16 15 14 15 15 14 14 14 14 15 15 15 15 15 15 15 15 16 16 16 16 16 16 16 16 15 14 13 11 9 8 8 8 8 5 9 10 14 15 15 14 14 13
17 16 14 15 15 15 14 14 14 15 15 15 15 15 15 15 15 15 15 15 15 15 15 15 14 14 12 11 8 6 5 4 2 4 8 10 9 12 14 14 13 13 13
17 16 15 15 15 14 14 14 14 14 14 14 14 14 14 14 14 14 15 14 14 14 14 14 13 12 10 9 6 4 3 2 2 5 8 10 9 11 13 13 12 12 12
17 16 15 15 15 14 14 14 14 13 13 13 13 13 13 13 13 14 14 13 13 13 12 12 12 11 9 7 4 3 3 5 0 7 9 10 9 11 12 12 11 11 11
17 16 14 15 15 14 14 13 13 13 13 13 13 12 12 12 12 13 13 13 12 12 11 11 11 10 8 5 2 3 4 5 5 10 11 10 11 11 11 11 10 10 10
16 15 13 13 12 13 13 13 13 12 12 12 11 11 11 12 11 12 11 11 11 11 10 10 9 8 6 3 1 3 5 5 2 5 11 8 11 11 11 10 9 9 9
12 12 13 12 11 11 11 12 12 12 11 10 10 10 10 10 11 11 10 9 10 9 9 8 7 6 5 2 1 4 5 5 1 7 8 9 12 12 10 9 9 8 8
10 9 11 11 10 10 11 11 11 11 9 9 8 9 8 6 7 7 10 9 9 8 7 7 6 5 3 3 4 5 5 2 3 7 7 12 12 11 10 9 8 8 7
9 9 8 8 8 9 9 8 6 6 6 4 4 6 4 3 4 8 9 9 8 7 6 6 5 5 5 3 5 6 3 2 4 6 7 13 12 11 10 9 8 7 7
8 8 9 7 4 6 6 5 3 4 3 4 4 4 3 3 4 6 5 6 5 7 5 5 6 4 3 2 2 3 1 1 3 6 8 12 11 10 9 8 8 7 7
8 9 8 8 5 3 4 4 4 4 3 3 3 2 3 1 2 2 2 3 4 3 2 3 2 2 1 1 1 1 0 1 3 5 7 12 11 10 9 8 8 7 6
8 9 8 6 6 4 3 0 3 3 3 4 2 2 2 2 2 2 1 0 1 2 2 1 1 1 1 1 1 1 1 2 3 5 6 11 11 9 9 8 8 8 7
9 10 9 7 6 4 2 1 1 3 2 3 2 3 2 2 2 2 1 0 0 1 1 1 1 1 0 0 1 1 0 0 2 5 6 7 10 10 9 9 8 8 8
9 9 9 8 7 5 3 3 2 2 3 3 3 3 2 2 2 1 1 1 0 0 1 1 0 1 1 1 1 2 1 1 1 3 5 5 6 9 10 9 9 8 8
9 8 7 8 9 6 3 2 1 1 2 2 3 3 3 2 2 1 1 1 1 1 1 1 1 1 1 1 1 2 1 2 2 2 3 5 5 6 9 11 10 9 8
9 8 6 6 8 7 5 3 2 1 1 2 2 3 3 3 3 2 1 0 1 1 1 2 1 1 1 2 2 2 2 2 2 3 3 4 4 5 6 9 11 9 9
9 8 6 6 6 6 4 3 2 2 2 2 2 3 4 3 3 2 1 1 2 1 1 1 1 1 2 2 3 2 2 2 2 2 3 3 3 4 5 6 6 7 9
9 8 7 6 6 4 3 4 3 3 3 2 3 4 4 4 3 2 1 2 2 1 1 2 1 2 3 2 1 1 2 2 3 2 2 1 1 2 3 4 4 4 4
10 9 8 7 7 6 4 3 3 3 3 3 2 3 4 4 4 4 3 2 2 2 1 2 2 2 2 1 1 1 1 1 1 2 2 2 1 1 2 4 4 3 3
11 11 9 7 7 6 5 3 3 2 2 2 2 3 4 4 4 3 3 3 2 2 2 2 2 3 3 2 1 1 1 1 1 1 0 1 1 1 1 2 3 3 3
12 11 8 8 7 6 5 4 4 4 3 3 2 2 3 3 3 3 3 3 3 2 1 3 3 2 2 2 2 2 2 1 1 1 1 0 1 1 1 1 2 2 3
12 11 9 8 7 6 5 5 4 3 3 2 2 3 3 3 3 3 3 3 3 2 2 2 1 2 2 2 2 2 2 2 2 1 1 0 1 1 1 1 2 2 3
12 11 10 9 7 7 6 5 4 4 2 2 2 2 2 2 2 3 3 3 3 2 2 2 2 2 2 3 2 2 2 1 1 2 2 1 1 0 1 1 2 2 2
Wind_Direction
91 92 90 88 86 85 85 85 84 84 83 82 82 82 84 86 86 87 89 90 91 92 91 90 91 90 90 90 91 92 95 97 99 100 99 96 93 94 98 104 102 95 98
95 97 95 92 90 89 88 88 86 85 85 85 85 86 86 88 88 87 89 90 92 93 93 92 92 92 92 93 94 97 101 105 107 109 106 96 90 89 89 88 93 100 101
100 103 99 93 93 91 89 89 88 87 86 86 86 86 87 88 89 90 90 92 93 94 94 94 93 93 93 95 97 100 105 112 119 124 118 102 93 88 89 92 99 103 103
105 101 96 97 95 93 91 90 89 89 88 87 86 86 87 88 90 91 92 91 92 93 94 94 94 94 94 96 98 102 107 117 134 141 116 100 96 94 95 97 101 103 104
101 100 100 98 96 95 93 91 90 90 90 88 87 87 88 89 91 93 94 93 92 92 94 95 96 96 96 95 96 97 94 103 122 112 95 92 92 101 101 102 103 105 106
108 104 103 101 98 96 95 93 92 92 91 90 89 90 89 91 93 94 94 94 93 93 95 96 97 98 97 94 89 74 48 25 17 101 100 99 100 105 105 105 104 105 106
109 110 109 105 102 101 99 97 95 95 95 95 94 93 93 94 96 96 96 95 94 95 96 97 97 97 97 92 76 36 8 349 133 101 93 95 103 109 109 108 109 109 108
112 112 115 111 110 107 104 102 101 99 98 98 98 98 98 97 97 98 98 96 96 98 98 99 100 98 98 93 55 352 341 338 83 104 102 104 114 113 112 112 111 111 111
115 122 125 124 119 114 110 109 108 106 105 106 107 108 107 106 105 104 101 101 101 102 103 103 104 105 107 106 21 325 328 335 31 106 110 112 121 120 120 118 117 116 116
114 123 127 129 132 131 121 119 118 118 118 121 122 123 123 122 121 119 112 108 108 109 110 112 114 117 122 143 261 295 307 316 132 105 105 122 129 127 127 127 126 124 123
108 113 121 130 143 138 129 130 134 134 136 139 142 146 150 154 140 135 111 121 120 121 125 131 136 142 156 201 242 272 294 275 88 95 103 129 137 136 136 137 136 135 133
121 122 119 126 137 131 126 138 151 145 150 168 147 161 175 149 128 118 128 139 142 143 150 166 173 186 208 205 216 236 248 182 108 106 121 139 142 143 145 148 149 149 149
129 126 125 119 105 117 127 144 136 126 146 148 138 151 145 135 136 134 153 155 166 172 184 176 197 214 210 212 208 217 225 102 110 113 136 146 148 151 154 159 163 165 166
134 122 119 119 107 82 94 122 141 141 143 128 151 163 132 120 119 127 148 164 168 172 178 176 197 202 215 251 243 248 20 82 104 117 144 152 154 158 162 168 171 175 177
135 127 117 120 115 99 75 67 123 121 124 133 136 119 125 129 108 106 110 128 162 152 162 185 171 154 179 266 293 9 23 58 110 123 140 161 161 165 171 176 180 181 184
148 134 133 134 123 120 134 105 93 119 121 127 126 131 132 107 107 110 124 265 148 124 114 181 174 163 198 274 317 314 281 151 118 129 143 163 171 173 177 183 187 192 195
146 134 138 142 138 151 163 192 156 152 151 134 127 130 134 127 128 143 169 208 184 174 161 199 255 207 216 210 220 241 228 189 147 137 148 159 173 184 185 187 192 196 202
143 140 152 153 145 154 172 208 168 147 128 142 154 151 158 152 173 196 203 192 187 226 194 199 230 253 259 244 234 232 204 183 171 177 174 172 171 177 187 193 195 196 201
143 144 153 144 146 159 169 177 196 148 144 170 166 158 168 182 188 202 215 98 250 250 237 252 143 259 276 274 255 226 212 196 188 206 189 191 181 170 172 189 194 194 199
146 147 155 154 150 159 165 174 206 191 191 198 175 171 171 189 194 201 196 180 258 255 267 298 309 283 275 270 272 270 250 201 188 205 207 204 179 179 177 176 181 195 198
151 153 163 166 158 164 174 181 195 191 204 204 193 176 182 195 194 208 224 178 234 249 261 273 255 257 251 252 277 288 271 225 203 195 204 201 188 191 165 150 164 175 183
158 160 166 173 169 180 185 189 201 201 218 205 190 168 193 196 199 209 201 217 212 218 231 266 272 273 274 250 240 266 281 291 292 220 179 169 173 170 121 150 150 161 158
167 169 176 178 173 187 183 193 211 193 237 212 180 185 203 202 207 227 185 216 228 229 215 236 254 262 271 282 244 242 247 251 282 304 94 151 137 113 105 106 136 149 145
171 172 171 170 173 181 184 200 208 204 218 216 189 186 195 199 211 207 202 210 222 242 213 235 221 245 256 264 255 231 228 219 224 296 324 358 113 107 106 114 106 110 120
175 173 170 166 172 177 188 201 211 221 221 211 185 180 186 196 210 215 201 198 211 235 236 252 253 247 249 256 260 251 239 226 220 219 247 263 32 64 99 98 87 81 89
175 174 172 169 174 176 187 198 206 225 230 243 194 175 194 201 204 213 207 198 206 228 236 245 251 254 251 258 264 272 262 230 219 220 225 215 203 187 85 76 88 89 93